Location: Bakov nad Jizerou
(50.4784°N, 14.9394°E)
Time: 03:46:53
(UTC+00:00)

Genesis I - Visible Passes

Search period start: 24 October 2021 00:00
Search period end: 03 November 2021 00:00
Orbit: 471 x 547 km, 64.5° (Epoch: 23 October)

Date Brightness Start Highest point End Pass type
(mag) Time Alt. Az. Time Alt. Az. Time Alt. Az.
30 Oct 4.7 05:08:47 10° SSW 05:12:31 43° ESE 05:16:20 10° NE visible
31 Oct 4.7 04:50:51 10° SSW 04:54:34 42° ESE 04:58:22 10° NE visible
01 Nov 4.6 04:32:55 10° SSW 04:36:36 41° ESE 04:40:25 10° NE visible
02 Nov 4.6 04:14:58 10° SSW 04:18:40 40° ESE 04:22:26 10° NE visible
